Location: La Bastide
(43.1661°N, 1.2755°E)
Time: 14:58:59
(UTC+00:00)

BlueWalker 3 - Pass Details

Date: 23 February 2026
Orbit: 451 x 458 km, 53.2° (Epoch: 6 March)

Event Time Altitude Azimuth Distance (km) Brightness Sun altitude
Rises 05:47:23 0° 214° (SW) 2,462 5.1 -10.5°
Reaches altitude 10° 05:49:35 10° 206° (SSW) 1,591 4.3 -10.1°
Maximum altitude 05:52:57 39° 137° (SE) 693 3.1 -9.5°
Drops below altitude 10° 05:56:20 10° 66° (ENE) 1,597 5.6 -8.9°
Sets 05:58:33 0° 59° (ENE) 2,473 6.4 -8.5°
